contact:dominique.lefevre@mio.osupytheas.fr, maurice.libes@osupytheas.fr, didier.mallarino@osupytheas.fr
Project:EMSO http://www.emso-fr.org/EMSO-France
Depth: 2436.0 m
Title:EMSO Ligure Ouest : Data MII capteur AQUADOPP
Date,Latitude,Longitude,X_East,Y_North,Z_Up,Amplitude_X,Amplitude_Y,Amplitude_Z,Batterie,SoundSpeed,Heading,Pitch,Roll,Pressure,TIS,Speed,Direction
, degrees North, degrees East, m.s-1, m.s-1,m.s-1, 1, 1, 1, Volt, m.s-1, degree, degree, degree, dbar, degree_C, m.s-1, degree
2023-10-15T00:04:03,42.805,6.029,0.03,-0.007,0.001,101.0,102.0,101.0,13.4,1505.2,356.8,-0.8,1.8,2471.498,13.28,0.03,103.1
2023-10-15T00:07:03,42.805,6.029,0.027,0.027,0.053,101.0,103.0,100.0,13.3,1505.2,337.2,-0.8,1.8,2471.515,13.28,0.038,45.0
2023-10-15T00:10:03,42.805,6.029,0.03,-0.018,-0.003,100.0,103.0,101.0,13.3,1505.2,346.2,-0.8,1.8,2471.522,13.28,0.034,121.0
2023-10-15T00:13:03,42.805,6.029,0.025,0.009,-0.002,101.0,102.0,101.0,13.3,1505.2,335.5,-0.8,1.8,2471.483,13.29,0.026,70.2
2023-10-15T00:16:03,42.805,6.029,0.038,-0.007,-0.005,101.0,103.0,101.0,13.3,1505.2,353.7,-0.8,1.8,2471.486,13.29,0.038,100.4
2023-10-15T00:19:03,42.805,6.029,0.035,0.001,-0.006,101.0,103.0,102.0,13.4,1505.2,330.3,-0.8,1.8,2471.461,13.29,0.035,88.4
2023-10-15T00:22:03,42.805,6.029,0.032,-0.018,0.013,102.0,102.0,100.0,13.4,1505.2,354.1,-0.8,1.8,2471.438,13.29,0.036,119.4
2023-10-15T00:25:03,42.805,6.029,0.046,-0.005,-0.024,102.0,103.0,100.0,13.3,1505.2,337.0,-0.8,1.8,2471.461,13.29,0.046,96.2
2023-10-15T00:28:03,42.805,6.029,0.045,-0.013,-0.001,101.0,102.0,101.0,13.3,1505.2,353.4,-0.8,1.8,2471.422,13.29,0.046,106.1
2023-10-15T00:31:03,42.805,6.029,0.043,-0.022,0.018,102.0,102.0,101.0,13.4,1505.2,351.1,-0.8,1.8,2471.456,13.29,0.048,117.1
2023-10-15T00:34:03,42.805,6.029,0.039,-0.006,-0.006,100.0,103.0,100.0,13.4,1505.2,343.2,-0.8,1.8,2471.459,13.29,0.039,98.7
2023-10-15T00:37:03,42.805,6.029,0.062,-0.029,0.025,102.0,101.0,101.0,13.3,1505.2,339.6,-0.8,1.8,2471.452,13.29,0.068,115.1
2023-10-15T00:40:03,42.805,6.029,0.044,-0.029,0.001,101.0,101.0,103.0,13.4,1505.2,346.1,-0.8,1.8,2471.427,13.29,0.052,123.4
2023-10-15T00:43:03,42.805,6.029,0.049,-0.026,-0.003,103.0,101.0,100.0,13.3,1505.2,344.9,-0.7,1.8,2471.445,13.29,0.055,117.9
2023-10-15T00:46:03,42.805,6.029,0.061,-0.028,0.009,101.0,101.0,101.0,13.4,1505.2,345.4,-0.8,1.8,2471.462,13.29,0.067,114.7
2023-10-15T00:49:03,42.805,6.029,0.03,-0.002,-0.012,102.0,102.0,101.0,13.4,1505.2,344.0,-0.8,1.8,2471.389,13.29,0.03,93.8
2023-10-15T00:52:03,42.805,6.029,0.046,-0.008,0.008,102.0,101.0,101.0,13.4,1505.2,345.0,-0.8,1.8,2471.408,13.29,0.046,99.9
2023-10-15T00:55:03,42.805,6.029,0.056,-0.039,-0.004,102.0,102.0,101.0,13.4,1505.2,351.7,-0.8,1.8,2471.444,13.29,0.068,124.9
2023-10-15T00:58:03,42.805,6.029,0.033,-0.018,-0.017,101.0,103.0,101.0,13.4,1505.2,333.8,-0.8,1.8,2471.424,13.29,0.037,118.6
2023-10-15T01:04:03,42.805,6.029,0.031,0.009,0.04,102.0,101.0,102.0,13.4,1505.2,353.6,-0.7,1.8,2471.422,13.28,0.032,73.8
2023-10-15T01:07:03,42.805,6.029,0.037,-0.02,0.01,100.0,103.0,102.0,13.3,1505.2,355.9,-0.8,1.8,2471.441,13.28,0.042,118.4
2023-10-15T01:10:03,42.805,6.029,0.036,-0.011,-0.002,99.0,102.0,102.0,13.3,1505.2,338.9,-0.7,1.8,2471.451,13.28,0.037,107.0
2023-10-15T01:13:03,42.805,6.029,0.059,0.0,0.009,101.0,102.0,102.0,13.3,1505.2,337.6,-0.7,1.8,2471.44,13.29,0.058,90.0
2023-10-15T01:16:03,42.805,6.029,0.055,-0.024,-0.018,101.0,102.0,100.0,13.4,1505.2,333.4,-0.8,1.8,2471.457,13.29,0.06,113.6
2023-10-15T01:19:03,42.805,6.029,0.022,-0.017,0.002,102.0,102.0,101.0,13.4,1505.2,359.0,-0.8,1.8,2471.458,13.29,0.027,127.7
2023-10-15T01:22:03,42.805,6.029,0.047,0.0,0.006,102.0,102.0,101.0,13.4,1505.2,345.7,-0.8,1.8,2471.427,13.29,0.047,90.0
2023-10-15T01:25:03,42.805,6.029,0.074,-0.029,0.023,101.0,101.0,101.0,13.4,1505.2,343.4,-0.8,1.8,2471.435,13.29,0.079,111.4
2023-10-15T01:28:03,42.805,6.029,0.032,-0.039,-0.035,100.0,104.0,101.0,13.3,1505.2,343.4,-0.8,1.8,2471.43,13.29,0.05,140.6
2023-10-15T01:31:03,42.805,6.029,0.037,-0.034,-0.046,101.0,102.0,101.0,13.3,1505.2,340.9,-0.8,1.8,2471.434,13.29,0.05,132.6
2023-10-15T01:34:03,42.805,6.029,0.06,-0.003,0.046,101.0,101.0,101.0,13.3,1505.2,337.4,-0.8,1.8,2471.422,13.29,0.06,92.9
2023-10-15T01:37:03,42.805,6.029,0.024,-0.047,-0.03,102.0,100.0,101.0,13.4,1505.2,358.0,-0.8,1.8,2471.396,13.29,0.052,153.0
2023-10-15T01:40:03,42.805,6.029,0.021,-0.014,-0.014,102.0,103.0,101.0,13.3,1505.2,340.0,-0.8,1.8,2471.416,13.29,0.025,123.7
2023-10-15T01:43:03,42.805,6.029,0.052,-0.02,-0.016,101.0,102.0,102.0,13.4,1505.2,333.8,-0.8,1.8,2471.413,13.29,0.055,111.0
2023-10-15T01:46:03,42.805,6.029,0.056,-0.024,0.034,101.0,101.0,101.0,13.3,1505.2,359.0,-0.8,1.8,2471.418,13.29,0.06,113.2
2023-10-15T01:49:03,42.805,6.029,-0.006,-0.003,-0.037,100.0,104.0,103.0,13.4,1505.2,333.4,-0.8,1.8,2471.415,13.29,0.006,243.4
2023-10-15T01:52:03,42.805,6.029,0.028,-0.01,0.009,102.0,103.0,101.0,13.3,1505.2,330.1,-0.8,1.8,2471.408,13.29,0.029,109.6
2023-10-15T01:55:03,42.805,6.029,0.056,-0.029,-0.023,101.0,101.0,101.0,13.4,1505.2,339.4,-0.7,1.8,2471.404,13.29,0.063,117.4
2023-10-15T01:58:03,42.805,6.029,0.059,-0.029,-0.005,102.0,102.0,101.0,13.4,1505.2,347.1,-0.8,1.8,2471.445,13.29,0.065,116.2
2023-10-15T02:04:03,42.805,6.029,0.032,0.005,0.005,102.0,101.0,101.0,13.4,1505.2,337.8,-0.7,1.8,2471.447,13.28,0.032,81.1
2023-10-15T02:07:03,42.805,6.029,0.04,-0.035,0.01,103.0,100.0,100.0,13.4,1505.2,358.0,-0.8,1.8,2471.471,13.28,0.053,131.2
2023-10-15T02:10:03,42.805,6.029,0.023,-0.026,-0.023,101.0,103.0,100.0,13.3,1505.2,354.5,-0.8,1.8,2471.466,13.28,0.034,138.5
2023-10-15T02:13:03,42.805,6.029,0.041,0.009,0.014,101.0,102.0,101.0,13.4,1505.2,340.7,-0.7,1.8,2471.423,13.29,0.041,77.6
2023-10-15T02:16:03,42.805,6.029,0.028,-0.025,0.011,102.0,101.0,100.0,13.3,1505.2,342.8,-0.8,1.8,2471.452,13.29,0.037,131.8
2023-10-15T02:19:03,42.805,6.029,0.034,-0.011,0.003,101.0,101.0,102.0,13.4,1505.2,332.1,-0.7,1.8,2471.404,13.29,0.035,107.9
2023-10-15T02:22:03,42.805,6.029,0.03,-0.01,-0.021,102.0,103.0,100.0,13.4,1505.2,352.2,-0.8,1.8,2471.408,13.29,0.031,108.4
2023-10-15T02:25:03,42.805,6.029,0.042,-0.045,-0.017,101.0,102.0,101.0,13.4,1505.2,349.5,-0.8,1.8,2471.469,13.29,0.061,137.0
2023-10-15T02:28:03,42.805,6.029,0.047,-0.014,0.015,100.0,101.0,101.0,13.3,1505.2,348.1,-0.8,1.8,2471.405,13.29,0.049,106.6
2023-10-15T02:31:03,42.805,6.029,0.062,-0.004,0.011,101.0,101.0,101.0,13.4,1505.2,332.1,-0.8,1.8,2471.451,13.29,0.062,93.7
2023-10-15T02:34:03,42.805,6.029,0.04,-0.008,-0.002,101.0,102.0,101.0,13.3,1505.2,336.0,-0.8,1.8,2471.413,13.29,0.04,101.3
2023-10-15T02:37:03,42.805,6.029,0.036,-0.041,-0.012,102.0,102.0,100.0,13.4,1505.2,352.6,-0.8,1.8,2471.443,13.29,0.054,138.7
2023-10-15T02:40:03,42.805,6.029,0.02,-0.036,-0.039,104.0,102.0,100.0,13.3,1505.2,352.7,-0.8,1.8,2471.432,13.29,0.041,150.9
2023-10-15T02:43:03,42.805,6.029,0.036,-0.01,-0.011,102.0,103.0,100.0,13.4,1505.2,333.0,-0.7,1.9,2471.425,13.29,0.037,105.5
2023-10-15T02:46:03,42.805,6.029,0.06,-0.012,-0.01,102.0,102.0,100.0,13.3,1505.2,337.5,-0.8,1.8,2471.406,13.29,0.061,101.3
2023-10-15T02:49:03,42.805,6.029,0.04,-0.031,-0.05,102.0,101.0,101.0,13.3,1505.2,337.8,-0.8,1.8,2471.422,13.29,0.05,127.8
2023-10-15T02:52:03,42.805,6.029,0.034,-0.014,-0.017,99.0,103.0,101.0,13.3,1505.2,346.2,-0.8,1.8,2471.452,13.29,0.036,112.4
2023-10-15T02:55:03,42.805,6.029,0.041,-0.018,-0.015,101.0,104.0,101.0,13.3,1505.2,335.2,-0.8,1.8,2471.46,13.29,0.044,113.7
2023-10-15T02:58:03,42.805,6.029,0.024,-0.003,-0.021,101.0,101.0,102.0,13.3,1505.2,341.0,-0.8,1.8,2471.409,13.29,0.024,97.1
2023-10-15T03:04:03,42.805,6.029,0.054,-0.008,0.0,101.0,102.0,101.0,13.4,1505.2,340.5,-0.8,1.8,2471.49,13.28,0.054,98.4
2023-10-15T03:07:03,42.805,6.029,0.051,-0.001,0.017,102.0,103.0,101.0,13.3,1505.2,350.3,-0.8,1.8,2471.447,13.28,0.051,91.1
2023-10-15T03:10:03,42.805,6.029,0.045,-0.014,-0.013,101.0,104.0,100.0,13.4,1505.2,334.3,-0.8,1.8,2471.491,13.28,0.047,107.3
2023-10-15T03:13:03,42.805,6.029,0.043,-0.012,0.012,102.0,104.0,102.0,13.4,1505.2,355.9,-0.8,1.8,2471.507,13.29,0.044,105.6
2023-10-15T03:16:03,42.805,6.029,0.021,0.017,0.012,102.0,102.0,101.0,13.3,1505.2,353.6,-0.8,1.8,2471.486,13.29,0.027,51.0
2023-10-15T03:19:03,42.805,6.029,0.051,0.018,0.005,102.0,103.0,101.0,13.3,1505.2,343.6,-0.8,1.8,2471.454,13.29,0.054,70.6
2023-10-15T03:22:03,42.805,6.029,0.029,-0.01,0.004,101.0,103.0,101.0,13.3,1505.2,355.9,-0.8,1.8,2471.448,13.29,0.03,109.0
2023-10-15T03:25:03,42.805,6.029,0.052,-0.002,0.028,103.0,103.0,101.0,13.3,1505.2,333.4,-0.8,1.8,2471.428,13.29,0.052,92.2
2023-10-15T03:28:03,42.805,6.029,0.064,-0.006,0.003,102.0,104.0,100.0,13.4,1505.2,329.3,-0.8,1.8,2471.438,13.29,0.064,95.4
2023-10-15T03:31:03,42.805,6.029,0.052,-0.006,0.012,102.0,103.0,100.0,13.4,1505.2,337.5,-0.8,1.8,2471.444,13.29,0.052,96.6
2023-10-15T03:34:03,42.805,6.029,0.04,-0.009,0.031,102.0,102.0,100.0,13.4,1505.2,358.0,-0.8,1.8,2471.432,13.29,0.041,102.7
2023-10-15T03:37:03,42.805,6.029,0.048,0.009,0.011,101.0,102.0,101.0,13.4,1505.2,337.6,-0.8,1.8,2471.477,13.29,0.048,79.4
2023-10-15T03:40:03,42.805,6.029,0.06,-0.044,0.003,100.0,103.0,101.0,13.4,1505.2,341.2,-0.8,1.8,2471.458,13.29,0.074,126.3
2023-10-15T03:43:03,42.805,6.029,0.043,-0.016,0.003,101.0,102.0,101.0,13.4,1505.2,354.3,-0.8,1.8,2471.444,13.29,0.045,110.4
2023-10-15T03:46:03,42.805,6.029,0.06,-0.035,0.016,102.0,102.0,101.0,13.4,1505.2,347.2,-0.7,1.8,2471.479,13.29,0.069,120.3
2023-10-15T03:49:03,42.805,6.029,0.065,-0.014,0.02,102.0,103.0,101.0,13.3,1505.2,347.0,-0.8,1.8,2471.432,13.29,0.066,102.2
2023-10-15T03:52:03,42.805,6.029,0.03,-0.008,0.006,102.0,102.0,101.0,13.4,1505.2,329.4,-0.8,1.8,2471.466,13.29,0.031,104.9
2023-10-15T03:55:03,42.805,6.029,0.031,-0.015,-0.008,102.0,103.0,101.0,13.4,1505.2,348.1,-0.8,1.8,2471.479,13.29,0.034,115.8
2023-10-15T03:58:03,42.805,6.029,0.063,0.011,0.007,101.0,103.0,101.0,13.4,1505.2,330.3,-0.8,1.8,2471.48,13.29,0.063,80.1
2023-10-15T04:04:03,42.805,6.029,0.021,-0.026,-0.033,102.0,102.0,101.0,13.4,1505.2,351.9,-0.7,1.8,2471.507,13.28,0.033,141.1
2023-10-15T04:07:03,42.805,6.029,0.034,-0.025,-0.01,102.0,103.0,101.0,13.4,1505.2,351.1,-0.8,1.8,2471.463,13.28,0.042,126.3
2023-10-15T04:10:03,42.805,6.029,0.07,0.007,0.03,101.0,102.0,101.0,13.4,1505.2,343.4,-0.8,1.8,2471.499,13.28,0.07,84.3
2023-10-15T04:13:03,42.805,6.029,0.054,-0.023,-0.023,103.0,101.0,102.0,13.4,1505.2,335.3,-0.8,1.8,2471.474,13.29,0.058,113.1
2023-10-15T04:16:03,42.805,6.029,0.017,-0.021,-0.022,102.0,102.0,101.0,13.3,1505.2,337.8,-0.8,1.8,2471.527,13.29,0.027,141.0
2023-10-15T04:19:03,42.805,6.029,0.05,0.005,0.036,102.0,103.0,100.0,13.3,1505.2,332.6,-0.8,1.8,2471.483,13.29,0.05,84.3
2023-10-15T04:22:03,42.805,6.029,0.063,-0.034,0.009,102.0,102.0,101.0,13.4,1505.2,344.6,-0.8,1.8,2471.46,13.29,0.071,118.4
2023-10-15T04:25:03,42.805,6.029,0.039,-0.046,-0.009,101.0,106.0,101.0,13.4,1505.2,358.0,-0.8,1.8,2471.492,13.29,0.06,139.7
2023-10-15T04:28:03,42.805,6.029,0.072,-0.012,0.001,103.0,101.0,101.0,13.4,1505.2,331.3,-0.8,1.8,2471.527,13.29,0.072,99.5
2023-10-15T04:31:03,42.805,6.029,0.025,-0.022,-0.029,102.0,102.0,101.0,13.3,1505.2,356.3,-0.8,1.8,2471.488,13.29,0.033,131.3
2023-10-15T04:34:03,42.805,6.029,0.038,-0.02,-0.014,102.0,101.0,102.0,13.4,1505.2,334.1,-0.7,1.9,2471.54,13.29,0.042,117.8
2023-10-15T04:37:03,42.805,6.029,0.042,-0.032,-0.006,101.0,102.0,101.0,13.4,1505.2,341.2,-0.8,1.8,2471.485,13.29,0.052,127.3
2023-10-15T04:40:03,42.805,6.029,0.047,-0.002,0.032,101.0,105.0,101.0,13.4,1505.2,340.0,-0.8,1.8,2471.531,13.29,0.047,92.4
2023-10-15T04:43:03,42.805,6.029,0.037,-0.019,-0.014,103.0,100.0,102.0,13.3,1505.2,334.7,-0.8,1.8,2471.505,13.29,0.041,117.2
2023-10-15T04:46:03,42.805,6.029,0.033,-0.022,-0.004,103.0,102.0,101.0,13.4,1505.2,353.8,-0.8,1.8,2471.515,13.29,0.039,123.7
2023-10-15T04:49:03,42.805,6.029,0.052,-0.002,-0.003,102.0,102.0,101.0,13.4,1505.2,334.8,-0.8,1.8,2471.517,13.29,0.052,92.2
2023-10-15T04:52:03,42.805,6.029,0.035,-0.002,-0.017,103.0,102.0,101.0,13.4,1505.2,336.0,-0.8,1.8,2471.507,13.29,0.035,93.3
2023-10-15T04:55:03,42.805,6.029,0.039,-0.005,0.036,102.0,101.0,101.0,13.4,1505.2,333.0,-0.8,1.8,2471.512,13.29,0.039,97.3
2023-10-15T04:58:03,42.805,6.029,-0.008,-0.009,-0.038,102.0,102.0,102.0,13.4,1505.2,340.9,-0.8,1.8,2471.55,13.29,0.012,221.6
2023-10-15T05:04:03,42.805,6.029,0.026,0.0,-0.007,102.0,103.0,101.0,13.4,1505.2,329.8,-0.8,1.8,2471.586,13.28,0.026,90.0
2023-10-15T05:07:03,42.805,6.029,0.05,-0.017,0.032,101.0,102.0,101.0,13.3,1505.2,356.9,-0.8,1.8,2471.541,13.28,0.052,108.8
2023-10-15T05:10:03,42.805,6.029,0.026,-0.031,-0.014,102.0,102.0,101.0,13.4,1505.2,351.0,-0.8,1.8,2471.557,13.28,0.04,140.0
2023-10-15T05:13:03,42.805,6.029,0.066,-0.012,-0.001,101.0,102.0,101.0,13.3,1505.2,334.5,-0.8,1.8,2471.572,13.29,0.067,100.3
2023-10-15T05:16:03,42.805,6.029,0.045,-0.002,0.016,102.0,102.0,101.0,13.4,1505.2,340.0,-0.8,1.8,2471.549,13.29,0.045,92.5
2023-10-15T05:19:03,42.805,6.029,0.027,-0.005,-0.041,103.0,101.0,101.0,13.4,1505.2,351.8,-0.8,1.8,2471.556,13.29,0.027,100.5
2023-10-15T05:22:03,42.805,6.029,0.041,-0.003,-0.002,102.0,103.0,101.0,13.4,1505.2,331.9,-0.8,1.8,2471.579,13.29,0.041,94.2
2023-10-15T05:25:03,42.805,6.029,0.031,-0.017,-0.002,101.0,102.0,101.0,13.4,1505.2,336.8,-0.8,1.8,2471.579,13.29,0.035,118.7
2023-10-15T05:28:03,42.805,6.029,0.046,-0.028,0.034,101.0,103.0,101.0,13.4,1505.2,344.6,-0.8,1.8,2471.559,13.29,0.053,121.3
2023-10-15T05:31:03,42.805,6.029,0.034,-0.01,0.016,102.0,102.0,101.0,13.4,1505.2,333.0,-0.7,1.8,2471.561,13.29,0.035,106.4
2023-10-15T05:34:03,42.805,6.029,0.026,-0.015,-0.011,100.0,104.0,101.0,13.3,1505.2,344.7,-0.8,1.8,2471.576,13.29,0.03,120.0
2023-10-15T05:37:03,42.805,6.029,0.013,-0.02,-0.049,100.0,104.0,101.0,13.4,1505.2,352.2,-0.8,1.8,2471.586,13.29,0.023,147.0
2023-10-15T05:40:03,42.805,6.029,0.056,-0.031,-0.033,103.0,101.0,100.0,13.4,1505.2,346.3,-0.8,1.8,2471.53,13.29,0.064,119.0
2023-10-15T05:43:03,42.805,6.029,0.062,-0.028,0.012,102.0,102.0,100.0,13.4,1505.2,341.8,-0.8,1.8,2471.547,13.29,0.068,114.3
2023-10-15T05:46:03,42.805,6.029,0.026,-0.017,0.0,103.0,102.0,101.0,13.3,1505.2,339.5,-0.7,1.8,2471.571,13.29,0.031,123.2
2023-10-15T05:49:03,42.805,6.029,0.059,-0.008,-0.008,101.0,102.0,101.0,13.4,1505.2,331.1,-0.8,1.8,2471.575,13.29,0.059,97.7
2023-10-15T05:52:03,42.805,6.029,0.053,0.01,0.021,100.0,103.0,101.0,13.4,1505.2,340.2,-0.7,1.8,2471.588,13.29,0.053,79.3
2023-10-15T05:55:03,42.805,6.029,0.036,-0.03,0.005,102.0,100.0,101.0,13.4,1505.2,354.8,-0.8,1.8,2471.595,13.29,0.046,129.8
2023-10-15T05:58:03,42.805,6.029,0.033,-0.014,-0.02,102.0,102.0,101.0,13.4,1505.2,345.2,-0.8,1.8,2471.557,13.29,0.035,113.0
2023-10-15T06:04:03,42.805,6.029,0.051,-0.022,-0.022,102.0,102.0,101.0,13.4,1505.2,337.8,-0.8,1.8,2471.635,13.28,0.055,113.3
2023-10-15T06:07:03,42.805,6.029,0.036,-0.04,-0.026,101.0,101.0,102.0,13.4,1505.2,357.1,-0.8,1.8,2471.647,13.28,0.053,138.0
2023-10-15T06:10:03,42.805,6.029,0.05,-0.045,-0.036,101.0,102.0,101.0,13.4,1505.2,346.6,-0.8,1.8,2471.643,13.28,0.067,132.0
2023-10-15T06:13:03,42.805,6.029,0.041,-0.018,0.032,102.0,102.0,101.0,13.4,1505.2,341.2,-0.8,1.8,2471.612,13.29,0.044,113.7
2023-10-15T06:16:03,42.805,6.029,0.055,-0.006,-0.006,102.0,102.0,102.0,13.4,1505.2,330.7,-0.7,1.8,2471.6,13.29,0.055,96.2
2023-10-15T06:19:03,42.805,6.029,0.045,-0.026,-0.015,103.0,102.0,100.0,13.4,1505.2,343.1,-0.8,1.8,2471.627,13.29,0.051,120.0
2023-10-15T06:22:03,42.805,6.029,0.037,-0.009,-0.002,102.0,101.0,100.0,13.4,1505.2,331.4,-0.7,1.8,2471.585,13.29,0.038,103.7
2023-10-15T06:25:03,42.805,6.029,0.008,-0.012,-0.027,102.0,102.0,101.0,13.4,1505.2,351.7,-0.8,1.8,2471.603,13.29,0.014,146.3
2023-10-15T06:28:03,42.805,6.029,0.066,-0.03,0.043,99.0,101.0,102.0,13.4,1505.2,351.7,-0.8,1.8,2471.603,13.29,0.072,114.4
2023-10-15T06:31:03,42.805,6.029,0.038,-0.037,-0.02,102.0,101.0,101.0,13.4,1505.2,349.5,-0.8,1.8,2471.583,13.29,0.053,134.2
2023-10-15T06:34:03,42.805,6.029,0.042,-0.019,-0.02,101.0,102.0,101.0,13.4,1505.2,356.2,-0.8,1.8,2471.613,13.29,0.046,114.3
2023-10-15T06:37:03,42.805,6.029,0.04,-0.01,-0.018,101.0,101.0,101.0,13.4,1505.2,331.9,-0.8,1.8,2471.628,13.29,0.041,104.0
2023-10-15T06:40:03,42.805,6.029,0.038,-0.036,-0.017,101.0,102.0,101.0,13.4,1505.2,354.1,-0.8,1.8,2471.6,13.29,0.052,133.5
2023-10-15T06:43:03,42.805,6.029,0.03,0.015,0.02,100.0,103.0,102.0,13.4,1505.2,337.5,-0.8,1.8,2471.581,13.29,0.033,63.4
2023-10-15T06:46:03,42.805,6.029,0.036,-0.004,-0.016,100.0,102.0,101.0,13.3,1505.2,338.2,-0.8,1.8,2471.6,13.29,0.036,96.3
2023-10-15T06:49:03,42.805,6.029,0.063,-0.028,-0.015,101.0,101.0,101.0,13.3,1505.2,329.6,-0.8,1.8,2471.631,13.29,0.068,114.0
2023-10-15T06:52:03,42.805,6.029,0.004,0.0,-0.037,101.0,101.0,101.0,13.4,1505.2,353.5,-0.8,1.8,2471.624,13.29,0.004,90.0
2023-10-15T06:55:03,42.805,6.029,0.041,-0.039,-0.004,102.0,102.0,101.0,13.3,1505.2,348.8,-0.7,1.8,2471.603,13.29,0.056,133.6
2023-10-15T06:58:03,42.805,6.029,0.071,-0.017,0.016,101.0,101.0,101.0,13.4,1505.2,340.5,-0.8,1.8,2471.631,13.29,0.073,103.5
2023-10-15T07:04:03,42.805,6.029,0.034,0.006,0.01,100.0,101.0,101.0,13.3,1505.2,339.4,-0.7,1.8,2471.646,13.28,0.034,80.0
2023-10-15T07:07:03,42.805,6.029,0.034,-0.028,-0.022,100.0,101.0,100.0,13.4,1505.2,352.6,-0.8,1.8,2471.645,13.28,0.044,129.5
2023-10-15T07:10:03,42.805,6.029,0.053,-0.052,-0.033,101.0,101.0,101.0,13.3,1505.2,343.9,-0.8,1.8,2471.676,13.28,0.074,134.5
2023-10-15T07:13:03,42.805,6.029,0.017,-0.021,-0.043,98.0,103.0,101.0,13.4,1505.2,354.7,-0.8,1.8,2471.646,13.29,0.027,141.0
2023-10-15T07:16:03,42.805,6.029,0.036,-0.011,-0.002,100.0,101.0,101.0,13.4,1505.2,331.9,-0.8,1.8,2471.637,13.29,0.037,107.0
2023-10-15T07:19:03,42.805,6.029,0.06,-0.026,0.042,101.0,101.0,100.0,13.4,1505.2,344.0,-0.8,1.8,2471.629,13.29,0.065,113.4
2023-10-15T07:22:03,42.805,6.029,0.054,-0.017,-0.01,100.0,101.0,101.0,13.3,1505.2,337.2,-0.8,1.8,2471.636,13.29,0.056,107.5
2023-10-15T07:25:03,42.805,6.029,0.013,0.016,0.0,102.0,100.0,101.0,13.4,1505.2,331.7,-0.8,1.8,2471.63,13.29,0.02,39.1
2023-10-15T07:28:03,42.805,6.029,0.049,-0.008,-0.025,100.0,102.0,99.0,13.3,1505.2,336.8,-0.8,1.8,2471.631,13.29,0.049,99.3
2023-10-15T07:31:03,42.805,6.029,0.032,0.013,0.038,101.0,101.0,100.0,13.4,1505.2,337.5,-0.7,1.8,2471.628,13.29,0.034,67.9
2023-10-15T07:34:03,42.805,6.029,0.019,-0.008,-0.029,100.0,103.0,101.0,13.3,1505.2,353.6,-0.8,1.8,2471.645,13.29,0.02,112.8
2023-10-15T07:37:03,42.805,6.029,0.055,-0.022,-0.01,100.0,100.0,100.0,13.3,1505.2,350.0,-0.7,1.8,2471.622,13.29,0.059,111.8
2023-10-15T07:40:03,42.805,6.029,0.035,0.014,0.016,101.0,101.0,100.0,13.4,1505.2,358.0,-0.8,1.8,2471.64,13.29,0.037,68.2
2023-10-15T07:43:03,42.805,6.029,0.038,-0.012,0.0,101.0,101.0,101.0,13.4,1505.2,342.1,-0.8,1.8,2471.608,13.29,0.039,107.5
2023-10-15T07:46:03,42.805,6.029,0.057,-0.03,-0.037,101.0,102.0,100.0,13.4,1505.2,342.2,-0.8,1.8,2471.634,13.29,0.064,117.8
2023-10-15T07:49:03,42.805,6.029,0.035,-0.006,-0.008,100.0,102.0,100.0,13.4,1505.2,338.2,-0.7,1.8,2471.65,13.29,0.035,99.7
2023-10-15T07:52:03,42.805,6.029,0.03,-0.027,0.008,101.0,102.0,100.0,13.4,1505.2,359.0,-0.8,1.8,2471.633,13.29,0.04,132.0
2023-10-15T07:55:03,42.805,6.029,0.023,0.002,0.009,100.0,101.0,100.0,13.4,1505.2,335.5,-0.7,1.8,2471.611,13.29,0.023,85.0
2023-10-15T07:58:03,42.805,6.029,0.054,-0.02,0.009,101.0,101.0,101.0,13.4,1505.2,347.0,-0.8,1.8,2471.644,13.29,0.057,110.3
2023-10-15T08:04:03,42.805,6.029,0.004,-0.003,-0.025,101.0,102.0,101.0,13.3,1505.2,330.3,-0.8,1.8,2471.7,13.28,0.005,126.9
2023-10-15T08:07:03,42.805,6.029,0.058,-0.004,0.027,101.0,101.0,101.0,13.3,1505.2,332.3,-0.8,1.8,2471.698,13.28,0.058,93.9
2023-10-15T08:10:03,42.805,6.029,0.042,0.0,0.025,101.0,101.0,101.0,13.4,1505.2,347.3,-0.8,1.8,2471.619,13.28,0.042,90.0
2023-10-15T08:13:03,42.805,6.029,0.052,-0.017,-0.005,100.0,102.0,100.0,13.3,1505.2,345.3,-0.8,1.8,2471.656,13.29,0.054,108.1
2023-10-15T08:16:03,42.805,6.029,0.054,-0.01,0.004,100.0,101.0,100.0,13.4,1505.2,338.2,-0.8,1.8,2471.62,13.29,0.054,100.5
2023-10-15T08:19:03,42.805,6.029,0.038,-0.041,-0.01,101.0,102.0,100.0,13.4,1505.2,355.3,-0.8,1.8,2471.648,13.29,0.055,137.2
2023-10-15T08:22:03,42.805,6.029,0.043,-0.029,-0.009,100.0,100.0,101.0,13.4,1505.2,349.0,-0.7,1.8,2471.621,13.29,0.051,124.0
2023-10-15T08:25:03,42.805,6.029,0.04,0.005,0.025,100.0,101.0,101.0,13.3,1505.2,343.4,-0.8,1.8,2471.616,13.29,0.04,82.9
2023-10-15T08:28:03,42.805,6.029,0.051,-0.017,0.0,100.0,101.0,101.0,13.3,1505.2,342.3,-0.8,1.8,2471.618,13.29,0.053,108.4
2023-10-15T08:31:03,42.805,6.029,0.034,-0.001,-0.013,101.0,100.0,101.0,13.3,1505.2,336.2,-0.7,1.8,2471.587,13.29,0.034,91.7
2023-10-15T08:34:03,42.805,6.029,0.039,0.0,-0.016,101.0,102.0,100.0,13.4,1505.2,339.2,-0.8,1.8,2471.627,13.29,0.039,90.0
2023-10-15T08:37:03,42.805,6.029,0.027,-0.025,-0.027,101.0,101.0,101.0,13.3,1505.2,354.6,-0.8,1.8,2471.631,13.29,0.036,132.8
2023-10-15T08:40:03,42.805,6.029,0.054,-0.023,0.01,100.0,102.0,101.0,13.4,1505.2,348.9,-0.8,1.8,2471.608,13.29,0.058,113.1
2023-10-15T08:43:03,42.805,6.029,0.04,0.011,0.004,101.0,102.0,100.0,13.3,1505.2,329.3,-0.7,1.8,2471.614,13.29,0.041,74.6
2023-10-15T08:46:03,42.805,6.029,0.066,-0.029,0.021,102.0,102.0,101.0,13.4,1505.2,335.0,-0.7,1.8,2471.636,13.29,0.072,113.7
2023-10-15T08:49:03,42.805,6.029,0.035,0.014,0.017,101.0,102.0,101.0,13.4,1505.2,343.7,-0.7,1.8,2471.602,13.29,0.037,68.2
2023-10-15T08:52:03,42.805,6.029,0.062,-0.001,0.025,100.0,102.0,101.0,13.4,1505.2,344.6,-0.7,1.8,2471.651,13.29,0.062,90.9
2023-10-15T08:55:03,42.805,6.029,0.037,-0.023,-0.018,102.0,102.0,100.0,13.3,1505.2,331.9,-0.7,1.8,2471.636,13.29,0.043,121.9
2023-10-15T08:58:03,42.805,6.029,0.032,-0.012,-0.005,101.0,103.0,100.0,13.3,1505.2,353.5,-0.8,1.8,2471.582,13.29,0.034,110.6
2023-10-15T09:04:03,42.805,6.029,0.061,-0.024,-0.004,101.0,102.0,101.0,13.3,1505.2,331.5,-0.8,1.8,2471.658,13.28,0.065,111.5
2023-10-15T09:07:03,42.805,6.029,0.022,0.005,0.016,101.0,101.0,101.0,13.4,1505.2,340.9,-0.8,1.8,2471.701,13.28,0.022,77.2
2023-10-15T09:10:03,42.805,6.029,0.053,-0.008,-0.02,101.0,102.0,101.0,13.4,1505.2,335.4,-0.8,1.8,2471.64,13.28,0.053,98.6
2023-10-15T09:13:03,42.805,6.029,0.041,-0.028,-0.013,100.0,104.0,101.0,13.3,1505.2,352.8,-0.8,1.8,2471.621,13.29,0.049,124.3
2023-10-15T09:16:03,42.805,6.029,0.045,-0.031,-0.028,101.0,101.0,101.0,13.4,1505.2,336.5,-0.8,1.9,2471.589,13.29,0.054,124.6
2023-10-15T09:19:03,42.805,6.029,0.043,-0.033,0.005,100.0,103.0,100.0,13.4,1505.2,337.3,-0.8,1.8,2471.606,13.29,0.054,127.5
2023-10-15T09:22:03,42.805,6.029,0.039,-0.009,0.005,102.0,101.0,101.0,13.4,1505.2,348.6,-0.8,1.8,2471.629,13.29,0.04,103.0
2023-10-15T09:25:03,42.805,6.029,0.038,-0.038,-0.05,100.0,102.0,100.0,13.4,1505.2,341.9,-0.8,1.8,2471.589,13.29,0.053,135.0
2023-10-15T09:28:03,42.805,6.029,0.034,-0.015,-0.025,99.0,103.0,100.0,13.4,1505.2,337.5,-0.8,1.8,2471.612,13.29,0.037,113.8
2023-10-15T09:31:03,42.805,6.029,0.069,-0.032,-0.012,101.0,103.0,101.0,13.4,1505.2,337.5,-0.7,1.8,2471.596,13.29,0.076,114.9
2023-10-15T09:34:03,42.805,6.029,0.011,-0.033,-0.015,102.0,102.0,101.0,13.4,1505.2,352.7,-0.8,1.8,2471.604,13.29,0.034,161.6
2023-10-15T09:37:03,42.805,6.029,0.04,-0.016,0.012,102.0,101.0,101.0,13.4,1505.2,338.0,-0.8,1.8,2471.536,13.29,0.043,111.8
2023-10-15T09:40:03,42.805,6.029,0.05,-0.045,-0.005,100.0,101.0,101.0,13.3,1505.2,353.5,-0.8,1.8,2471.557,13.29,0.067,132.0
2023-10-15T09:43:03,42.805,6.029,0.078,-0.053,-0.016,101.0,102.0,100.0,13.3,1505.2,343.0,-0.8,1.8,2471.534,13.29,0.094,124.2
2023-10-15T09:46:03,42.805,6.029,0.044,-0.016,-0.001,102.0,101.0,101.0,13.3,1505.2,332.5,-0.8,1.8,2471.557,13.29,0.046,110.0
2023-10-15T09:49:03,42.805,6.029,0.044,-0.05,-0.047,102.0,102.0,101.0,13.3,1505.2,346.4,-0.8,1.8,2471.552,13.29,0.066,138.7
2023-10-15T09:52:03,42.805,6.029,0.031,-0.025,0.004,102.0,101.0,101.0,13.4,1505.2,338.2,-0.7,1.8,2471.515,13.29,0.039,128.9
2023-10-15T09:55:03,42.805,6.029,0.021,0.002,0.022,102.0,101.0,101.0,13.4,1505.2,347.9,-0.8,1.8,2471.565,13.29,0.021,84.6
2023-10-15T09:58:03,42.805,6.029,0.049,-0.023,-0.009,103.0,100.0,101.0,13.4,1505.2,332.3,-0.8,1.8,2471.563,13.29,0.054,115.1